Regional Weather Roundup
Issued by NWS

Home | Current Version | Previous Version | Graphics & Text | Print | Product List | Glossary On
Versions: 1 2 3 4 5 6 7 8 9 10 11 12 13 14 15 16 17 18 19 20 21 22 23 24 25 26 27
000
ASUS45 KBOI 180810
RWRID

IDAHO REGIONAL WEATHER ROUNDUP
NATIONAL WEATHER SERVICE BOISE ID
100 AM MST SAT NOV 18 2017

NOTE: "FAIR" INDICATES FEW OR NO CLOUDS BELOW 12000 FEET
WITH NO SIGNIFICANT WEATHER AND/OR OBSTRUCTIONS TO VISIBILITY

IDZ012-014-180900-
SOUTHWEST IDAHO


CITY           SKY/WX    TMP DP  RH WIND       PRES   REMARKS
BOISE          CLEAR     30  23  75 SE9       30.37R WCI  22
CALDWELL       CLEAR     29  25  85 E6        30.38  WCI  23
MOUNTAIN HOME  CLEAR     27  26  99 NE5       30.38R WCI  21
$$

IDZ016-017-180900-
SOUTHCENTRAL IDAHO


CITY           SKY/WX    TMP DP  RH WIND       PRES   REMARKS
BURLEY         CLEAR     30  21  69 SW12      30.33R WCI  20
JEROME         CLEAR     29  23  78 S3        30.35R
TWIN FALLS     CLEAR     26  21  81 SW13      30.34S WCI  15
$$

IDZ019>023-180900-
SOUTHEAST IDAHO


CITY           SKY/WX    TMP DP  RH WIND       PRES   REMARKS
IDAHO FALLS    CLEAR     26  22  84 SW12      30.29R WCI  16
POCATELLO      CLEAR     29  24  82 SW16      30.33R WCI  17
REXBURG        CLEAR     25  20  81 S10       30.26R WCI  15
$$

IDZ006-010-011-018-031-032-180900-
CENTRAL IDAHO MOUNTAINS


CITY           SKY/WX    TMP DP  RH WIND       PRES   REMARKS
MCCALL         MOCLDY    21  18  88 CALM      30.27R
HAILEY         PTCLDY    23  16  74 NW12      30.32R WCI  12
STANLEY          N/A     12   7  80 VRB5      30.29R WCI   4
SALMON         CLOUDY    29  17  61 S8        30.30R WCI  21
CHALLIS        PTCLDY    26  14  60 CALM      30.28R
$$

IDZ002-004-006-007-026-180900-
NORTHERN IDAHO


CITY           SKY/WX    TMP DP  RH WIND       PRES   REMARKS
LEWISTON       CLOUDY    37  30  75 CALM      30.32R
LOWELL           N/A     37  35  92 CALM      30.37R
COEUR D`ALENE  MOCLDY    33  29  85 CALM      30.26R
MULLAN PASS    MIX PCPN  23  19  85 W9G21     30.12R WCI  13
$$




USA.gov is the U.S. government's official web portal to all federal, state and local government web resources and services.